Regional Weather Roundup
Issued by NWS

Home | Current Version | Previous Version | Graphics & Text | Print | Product List | Glossary On
Versions: 1 2 3 4 5 6 7 8 9 10 11 12 13 14 15 16 17 18 19 20 21 22 23 24 25 26 27 28
000
ASUS45 KPSR 281810
RWRAZ

ARIZONA HOURLY REGIONAL WEATHER ROUNDUP
NATIONAL WEATHER SERVICE PHOENIX AZ
1100 AM MST TUE MAR 28 2017

NOTE: FAIR INDICATES FEW OR NO CLOUDS BELOW 12,000 FEET WITH NO
SIGNIFICANT WEATHER AND/OR OBSTRUCTIONS TO VISIBILITY.

AZZ001>003-036-281900-
NORTHWEST ARIZONA

CITY           SKY/WX    TMP DP  RH WIND       PRES   REMARKS
BULLHEAD CITY  SUNNY     68  25  19 N32G39    29.98F
KINGMAN        SUNNY     58  13  17 N14G24    30.03R
6HR MIN TEMP:  44; 6HR MAX TEMP:  58;

$$

AZZ004>008-015-016-018-281900-
NORTH CENTRAL ARIZONA

CITY           SKY/WX    TMP DP  RH WIND       PRES   REMARKS
GRAND CANYON   MOSUNNY   47  26  44 N8        29.99S
6HR MIN TEMP:  32; 6HR MAX TEMP:  47;

WILLIAMS       MOSUNNY   46  28  49 N17G24    29.99R
PRESCOTT       MOSUNNY   53  31  42 NW17G24   29.96R
6HR MIN TEMP:  34; 6HR MAX TEMP:  53;

FLAGSTAFF      PTSUNNY   44  26  49 NE8       29.96R
6HR MIN TEMP:  28; 6HR MAX TEMP:  44; 6HR PCP: TRACE;

PAYSON         PTSUNNY   50  32  50 CALM      29.95S
PAGE           CLOUDY    55  27  34 NW6       29.94S
6HR MIN TEMP:  49; 6HR MAX TEMP:  56;

$$

AZZ009>014-017-281900-
NORTHEAST ARIZONA

CITY           SKY/WX    TMP DP  RH WIND       PRES   REMARKS
WINSLOW        PTSUNNY   52  39  61 N15G23    29.93S
6HR MIN TEMP:  38; 6HR MAX TEMP:  52; 6HR PCP: TRACE;

SAINT JOHNS    CLOUDY    43  37  79 W8        29.90S
6HR MIN TEMP:  34; 6HR MAX TEMP:  43; 6HR PCP:  0.02;

WINDOW ROCK    LGT RAIN  44  32  62 N13       29.88R
6HR MIN TEMP:  35; 6HR MAX TEMP:  48; 6HR PCP: TRACE;

SHOW LOW       CLOUDY    37  34  87 NW10      29.94S WCI  30
$$

AZZ023-281900-
GREATER PHOENIX AREA

CITY           SKY/WX    TMP DP  RH WIND       PRES   REMARKS
PHOENIX        MOSUNNY   68  34  28 CALM      29.86S
6HR MIN TEMP:  57; 6HR MAX TEMP:  69;

BUCKEYE        SUNNY     70  32  24 NW9G18    29.90S
GLENDALE       MOSUNNY   70  34  26 CALM      29.90R
LUKE AFB       SUNNY     69  35  28 CALM      29.87R
6HR MIN TEMP:  55; 6HR MAX TEMP:  70;

DEER VALLEY    SUNNY     68  34  28 W6        29.86S
6HR MIN TEMP:  50; 6HR MAX TEMP:  69;

SCOTTSDALE     SUNNY     67  34  29 VRB3      29.88S
6HR MIN TEMP:  52; 6HR MAX TEMP:  67;

MESA-FALCON    SUNNY    N/A N/A N/A W12       29.86R
MESA-GATEWAY   MOSUNNY   64  36  34 N6        29.89S
CHANDLER       SUNNY     68  34  28 VRB6      29.88S
$$

AZZ027-028-281900-
SOUTHWEST MARICOPA COUNTY AND PINAL COUNTY

CITY           SKY/WX    TMP DP  RH WIND       PRES   REMARKS
CASA GRANDE    NOT AVBL
GILA BEND      SUNNY     71  33  24 NW14G22   29.90S
6HR MIN TEMP:  57; 6HR MAX TEMP:  71;

$$

AZZ503-504-507>509-281900-
SOUTHEAST ARIZONA

CITY           SKY/WX    TMP DP  RH WIND       PRES   REMARKS
TUCSON         MOSUNNY   62  37  39 W12       29.93S
6HR MIN TEMP:  51; 6HR MAX TEMP:  63;

DAVIS-MONTHAN  MOSUNNY   60  39  46 N6        29.91S
RYAN FIELD     SUNNY     63  36  36 MISG      29.93S
NOGALES        SUNNY     62  25  24 W14G20    29.92F
6HR MIN TEMP:  47; 6HR MAX TEMP:  63; 6HR PCP: TRACE;

SIERRA VISTA   PTSUNNY   58  31  36 NW12      29.94S
6HR MIN TEMP:  41; 6HR MAX TEMP:  58; 6HR PCP: TRACE;

DOUGLAS        PTSUNNY   57  36  45 MISG      29.91F
6HR MIN TEMP:  43; 6HR MAX TEMP:  60; 6HR PCP:  0.08;

SAFFORD        PTSUNNY   59  32  36 NW15      29.85S
6HR MIN TEMP:  50; 6HR MAX TEMP:  63; 6HR PCP: TRACE;

$$

AZZ020-021-025-026-031-281900-
SOUTHWEST ARIZONA

CITY           SKY/WX    TMP DP  RH WIND       PRES   REMARKS
YUMA           SUNNY     75  25  15 N18G24    29.96S
6HR MIN TEMP:  59; 6HR MAX TEMP:  75;

$$

CAZ031-033-041-043-047-048-061-281900-
SOUTHERN CALIFORNIA

CITY           SKY/WX    TMP DP  RH WIND       PRES   REMARKS
DOWNTOWN L.A.  SUNNY     72  39  30 VRB5      30.03S
6HR MIN TEMP:  57; 6HR MAX TEMP:  72;

L.A. AIRPORT   MOSUNNY   69  43  38 CALM      30.04R
6HR MIN TEMP:  54; 6HR MAX TEMP:  69;

SAN DIEGO      SUNNY     66  48  52 NW6       30.05S
6HR MIN TEMP:  56; 6HR MAX TEMP:  66;

BURBANK        SUNNY     69  35  28 SE10      30.03S
6HR MIN TEMP:  56; 6HR MAX TEMP:  69;

ONTARIO        MOSUNNY   69  35  28 SW5       30.03F
6HR MIN TEMP:  47; 6HR MAX TEMP:  69;

RIVERSIDE      SUNNY     70  24  17 N15G30    30.03F
6HR MIN TEMP:  50; 6HR MAX TEMP:  70;

PALM SPRINGS   SUNNY     76  16  10 E9        30.03F
6HR MIN TEMP:  57; 6HR MAX TEMP:  76;

EL CENTRO NAS  SUNNY     76  19  11 N20G32    30.02R
6HR MIN TEMP:  61; 6HR MAX TEMP:  76; 6HR PCP: TRACE;

IMPERIAL       SUNNY     74  26  16 N23G32    29.98F
6HR MIN TEMP:  60; 6HR MAX TEMP:  74;

BLYTHE         SUNNY     72  24  16 N18G30    29.98R
6HR MIN TEMP:  61; 6HR MAX TEMP:  73;

NEEDLES        SUNNY     72  23  16 NE28G41   29.99S
6HR MIN TEMP:  61; 6HR MAX TEMP:  72;

$$

NVZ020-UTZ003-281900-
SOUTHERN NEVADA-UTAH

CITY           SKY/WX    TMP DP  RH WIND       PRES   REMARKS
LAS VEGAS      MOSUNNY   63  18  17 NW15G28   30.08S
6HR MIN TEMP:  55; 6HR MAX TEMP:  64;

SALT LAKE CITY MOSUNNY   48  34  58 NW7G18    30.14S
6HR MIN TEMP:  38; 6HR MAX TEMP:  48;

$$

NMZ009-TXZ055-281900-
NEW MEXICO-WEST TEXAS

CITY           SKY/WX    TMP DP  RH WIND       PRES   REMARKS
ALBUQUERQUE    MOSUNNY   51  37  58 NW8       29.81F
6HR MIN TEMP:  42; 6HR MAX TEMP:  51; 6HR PCP:  0.07;

EL PASO        MOSUNNY   65  26  23 W21G26    29.80F
6HR MIN TEMP:  60; 6HR MAX TEMP:  67;

$$


........................KEY........................
SKY/WX - SKY CONDITION/WEATHER
TMP    - TEMPERATURE IN FAHRENHEIT
DP     - DEW POINT IN FAHRENHEIT
RH     - RELATIVE HUMIDITY IN PERCENT
WIND   - DIRECTION AND SPEED IN MILES PER HOUR (MPH)
VRB    - VARIABLE WIND DIRECTION
PRES   - MEAN SEA LEVEL PRESSURE IN INCHES OF MERCURY
         F - FALLING PRESSURE   R - RISING PRESSURE
         S - STEADY PRESSURE
VSB    - VISIBILITY IN MILES
HX     - HEAT INDEX IN FAHRENHEIT
WCI    - WIND CHILL INDEX IN FAHRENHEIT
TC     - TEMPERATURE IN CELSIUS WHICH IS ALSO KNOWN AS
         TEMPERATURE IN CENTIGRADE
AFB    - AIR FORCE BASE
         LUKE AFB IS LUKE AIR FORCE BASE
         DAVIS-MONTHAN IS DAVIS-MONTHAN AIR FORCE BASE
NAS    - NAVAL AIR STATION
         EL CENTRO NAS IS EL CENTRO NAVAL AIR STATION
N/A    - NOT AVAILABLE





USA.gov is the U.S. government's official web portal to all federal, state and local government web resources and services.